Regional Weather Roundup
Issued by NWS Wakefield, VA

Home | Current Version | Previous Version | Graphics & Text | Print | Product List | Glossary On
Versions: 1 2 3 4 5 6 7 8 9 10 11 12 13 14 15 16 17 18 19 20 21 22 23 24 25 26 27 28
000
ASUS41 KAKQ 100615
RWRAKQ

REGIONAL WEATHER ROUNDUP
NATIONAL WEATHER SERVICE WAKEFIELD VA
100 AM EST SAT DEC 10 2016

Note: "fair" indicates few or no clouds below 12,000 feet with no
significant weather and/or obstructions to visibility. * = Denotes
station may not report precipitation (e.g., rain,snow,etc.),
thunder or fog.

VAZ042-051-052>054-056-100700-
NORTHERN VIRGINIA

CITY           SKY/WX    TMP DP  RH WIND       PRES   REMARKS
WASH NATIONAL  MOCLDY    32  16  51 NW10      30.44S WCI  24
DULLES         CLEAR     25  14  63 S3        30.44R
FORT BELVOIR   NOT AVBL
QUANTICO       CLEAR     29  17  61 NW8       30.47S
FREDERICKSBRG* PTCLDY    29  17  61 W5        30.46S
STAFFORD*      PTCLDY    26  15  63 W5        30.49F
WARRENTON      CLEAR     23  13  65 CALM      30.44S
CULPEPER*      CLOUDY    28  17  62 CALM      30.46S
MANASSAS*      NOT AVBL
LEESBURG*      CLEAR     30  21  69 W7        30.44S
WINCHESTER     CLOUDY    28  14  54 W10       30.42R WCI  19
FRONT ROYAL*   FAIR      30  14  51 W3        30.43R
LURAY*         FAIR      28  18  64 W7        30.43F
$$

VAZ048-049-060>072-079>083-100700-
CENTRAL AND SOUTH CENTRAL VIRGINIA

CITY           SKY/WX    TMP DP  RH WIND       PRES   REMARKS
RICHMOND       CLEAR     27  14  58 NW7       30.45F
CHESTERFIELD*  FAIR      25   1  36 NW6       30.47R
PETERSBURG*    CLEAR     19  15  84 W3        30.48R
HANOVER        CLEAR     27  14  58 VRB5      30.47S
TAPPAHANNOCK*  CLEAR     30  11  45 W5        30.45S
QUINTON*       FAIR      27  15  61 NW5       30.45S
CHARLOTTSVILLE PTCLDY    28  13  53 CALM      30.45S
GORDONSVILLE*  FAIR      29  13  50 CALM      30.45S
ORANGE*          N/A     30  16  55 CALM      30.47S
LOUISA*        PTCLDY    30  18  59 W5        30.44S
BUMPASS*       FAIR      27  14  57 NW3       30.45F
FARMVILLE*     CLEAR     25  16  68 CALM      30.46S
CREWE*         FAIR      24  15  67 CALM      30.46S
FORT PICKETT*  FAIR      25   8  47 NW3       30.47R
CHASE CITY*    FAIR      25  13  58 CALM      30.48R
CLARKSVILLE*   FAIR      27  14  59 W3        30.48R
SOUTH HILL*    CLEAR     23  15  73 CALM      30.53R
LAWRENCEVILLE* FAIR      23  16  73 CALM      30.47R
EMPORIA*       CLEAR     25  14  63 W3        30.49R
$$

VAZ088>098-100700-
SOUTHEAST VIRGINIA

CITY           SKY/WX    TMP DP  RH WIND       PRES   REMARKS
NORFOLK        CLEAR     35  17  47 N12G20    30.44R
VIRGINIA BEACH PTCLDY    34  17  50 N14       30.42S WCI  25
NORFOLK NAVAL  CLEAR     33  15  47 N20       30.45S WCI  21
WEST POINT*    CLEAR     30  14  51 NW3       30.47R
SALUDA*        FAIR      32  18  56 NW8       30.44S
NEWPORT NEWS   CLEAR     31  15  52 N7        30.45R
LANGLEY AFB    CLEAR     32  15  49 NW12      30.44R WCI  23
FORT EUSTIS    CLEAR     31  14  49 N9        30.42S
WILLIAMSBURG*  CLEAR     30  18  59 N6        30.46R
HR EXEC AP*    FAIR      30  18  59 N3        30.43S
FRANKLIN*      CLEAR     25  19  76 W5        30.47S
US460-WAKEFLD  CLEAR     22  17  81 W3        30.46S
$$

VAZ020-022-025-037-045-100700-
WEST CENTRAL AND SOUTHWEST VIRGINIA

CITY           SKY/WX    TMP DP  RH WIND       PRES   REMARKS
STAUNTON*      PTCLDY    23  13  66 W3        30.45S
WAYNESBORO*    FAIR      23  11  60 SW3       30.42S
HOT SPRINGS VA FLURRIES  14   9  79 NW16      30.24S WCI  -2
LYNCHBURG      CLEAR     20  12  71 CALM      30.47R
DANVILLE       CLEAR     25  14  63 NW7       30.50R
SOUTH BOSTON*  FAIR      25  12  57 W3        30.50R
MARTINSVILLE   CLEAR     19  11  70 CALM      30.50F
ROANOKE        CLEAR     21  11  65 NW6       30.49S
BLACKSBURG     CLEAR     20  12  70 W6        30.43F
DUBLIN*        PTCLDY    20  13  72 W5        30.43F
MARION*        PTCLDY    17  12  82 W8        30.42F
HILLSVILLE*    CLEAR     16  11  81 CALM      30.36F
RICHLANDS*     CLOUDY    17  13  83 W5        30.40F
WISE*          PTCLDY    18  12  79 CALM      30.41S
ABINGDON*      CLEAR     17  14  86 CALM      30.44F
$$

MDZ021>025-VAZ099-100-100700-
SOUTHERN MARYLAND AND THE DELMARVA PENINSULA

CITY           SKY/WX    TMP DP  RH WIND       PRES   REMARKS
PATUXENT RIVER CLEAR     30  17  58 W12       30.43S WCI  20
BAY BRIDGE APT CLEAR     30  19  64 MISG      30.42S
LEONARDTOWN    CLEAR     30  18  59 W8        30.44F
DOVER          CLEAR     29  19  66 W9        30.38S
GEORGETOWN     CLEAR     29  19  66 W5        30.40F
EASTON         CLEAR     32  19  57 NW9G17    30.45S
CAMBRIDGE      PTCLDY    32  19  59 W7        30.42R
SALISBURY      PTCLDY    29  18  63 W7        30.41S
OCEAN CITY     CLEAR     29  18  63 NW6       30.41S
WALLOPS ISLAND CLEAR     28  20  71 NW7       30.42S
ACCOMACK*      CLEAR     33  20  59 NW6G17    30.41F
$$

NCZ012>017-030>032-100700-
NORTH CENTRAL AND EASTERN NORTH CAROLINA

CITY           SKY/WX    TMP DP  RH WIND       PRES   REMARKS
ROANOKE RAPIDS FAIR      28  19  69 NW5       30.48S
RALEIGH        CLEAR     26  14  60 CALM      30.50S
ELIZABETH CITY CLEAR     27  18  69 W6        30.45R
AHOSKIE*       PTCLDY    26  18  70 CALM      30.48R
EDENTON*       NOT AVBL
CURRITUCK*     CLEAR     31  19  62 W3        30.45R
KILL DEVIL HLS CLEAR     35  25  64 NW5       30.42R
MANTEO         CLEAR     36  18  48 N9        30.44R
CAPE HATTERAS  CLEAR     38  19  46 VRB7      30.42S
TARBORO*       NOT AVBL
GOLDSBORO      CLEAR     29  17  61 NW3       30.47S
WASHINGTON     CLEAR     28  19  69 NW5       30.47S
GREENVILLE     CLEAR     30  19  64 NW3       30.48R
NEW BERN       CLEAR     28  22  78 W3        30.48S
WILMINGTON     CLEAR     29  21  72 N7        30.48S
$$

VAZ048-100700-
ELSEWHERE

CITY           SKY/WX    TMP DP  RH WIND       PRES   REMARKS
HARRISBURG PA  PTCLDY    30  19  63 W10       30.36S WCI  21
BALTIMORE      PTCLDY    27  18  69 W8        30.42R
ANNAPOLIS      CLEAR     31  18  58 W7        30.42S
ANDREWS AFB    CLEAR     29  16  58 W12       30.41S WCI  19
PHILADELPHIA   MOCLDY    31  18  58 W13       30.38R WCI  21
HENDERSON NC   CLEAR     24  11  57 NW5       30.47S
GREENSBORO     PTCLDY    25  13  60 CALM      30.47S
ROCKY MOUNT    CLEAR     26  17  68 CALM      30.49R
$$

VAZ100-100700-
MARINE

STATION/POSITION TIME  TEMP    WIND        PRES    WAVE   SWELL
                       AIR SEA DIR/SP/G            HT/PER HT/PER
                 (UTC) (F)     (DEG/KT/KT) (MB)    (FT/S) (FT/S)
BRANDYWINE LGT   0548          310/ 21/ 25   N/A
CAPE MAY NJ      0548          300/ 13/ 22 1028.3R
LEWES DE         0548          290/ 12/ 14 1029.0F
OCEAN-CITY-INLET 0542          310/  6/  8 1029.8F
WACHAPREAGUE VA  0548          310/  3/  6 1029.9F
THOMAS POINT MD  0600   32 44  280/ 14/ 16   N/A
GOOSES REEF MD   0600   34 48  290/ 17/ 21 1030.9    2/ 3
COVE POINT MD    0548          320/ 11/ 13 1030.8F
SOLOMONS ISLAND  0542          290/  8/ 12   N/A
BISHOPS HEAD MD  0548          310/ 13/ 20 1030.4F
PINEY POINT MD   0548          330/ 23/ 27   N/A
POTOMAC MD       0550   35     330/ 19/ 25 1029.8F
CAMBRIDGE MD     0548          290/ 13/ 18 1029.4F
LEWISETTA VA     0548          300/  8/ 11 1030.4F
RAPPAHANNOCK LGT 0548          310/ 21/ 24 1030.6F
STINGRAY PT      0550   34     330/ 16/ 19 1030.9F
YORK RVR RNG VA  0548          330/ 17/ 19 1030.3S
YORKTOWN VA      0548          320/ 12/ 15 1030.6S
JAMESTOWN VA     0550   31     330/  4/  8   N/A
DOMINION TERM VA 0548           40/  2/  7 1030.8R
KIPTOPEKE VA     0548          360/ 13/ 18   N/A
CHES BAY BRIDGE  0548          350/ 19/ 24 1030.4R
CAPE HENRY VA    0548          330/ 18/ 22   N/A
WILLOUBY STN VA  0548          340/ 15/ 17 1031.6R
S CRANEY ISL VA  0548          350/ 16/ 23 1030.4R
CAPE HENRY BUOY  0542      53                N/A     4/ 4
1ST LANDING BUOY 0550   36                 1030.4F
CAPE CHARLES BUO 0556      51                N/A     3/ 4
OFFSHORE WE BUOY 0551      54                N/A     5/ 5
64NM E OF VA BCH 0550   41 58  330/ 17/ 23 1028.3F   6/ 6   2/14
DUCK PIER NC     0548          310/ 12/ 15 1029.9R
44100 DUCK FRF   0535      55                N/A     5/ 6
OREGON INLET NC  0542          300/ 10/ 14 1030.0R
HATTERAS NC      0548          340/ 13/ 19 1029.7F
DIAMOND SHLS NC  0550   42 77   10/ 14/ 21 1029.6F   5/ 9   3/ 9
CAPE LOOKOUT NC  0600   38     340/ 12/ 13 1031.0R
$$




USA.gov is the U.S. government's official web portal to all federal, state and local government web resources and services.